Hyannis, MA

9:11 PM EST on February 06, 2016 (GMT -0500)
Barnstable Municipal-Boardman-Polando Field

Weather History for KHYA - September, 2013

Change the Weather History Date:

Wednesday, September 25, 2013

  Actual Average Record
Temperature  
Mean Temperature 54 °F -  
Max Temperature 66 °F 66 °F 83 °F (1930)
Min Temperature 44 °F 49 °F 29 °F (1963)
Degree Days  
Heating Degree Days 11    
Growing Degree Days 4 (Base 50)    
Moisture  
Dew Point 47 °F    
Average Humidity 72    
Maximum Humidity 93    
Minimum Humidity 50    
Precipitation  
Precipitation 0.00 in - - ()
Sea Level Pressure  
Sea Level Pressure 29.90 in    
Wind  
Wind Speed 3 mph (North)    
Max Wind Speed 12 mph    
Max Gust Speed 17 mph    
Visibility 10 miles    
Events      
Averages and records for this station are not official NWS values.
T = Trace of Precipitation, MM = Missing Value Source: NWS Daily Summary

Daily Weather History Graph

Daily Weather History Graph

Search for Another Location

Airport or City:

Trip Planner

Search our weather history database for the weather conditions in past years. The results will help you decide how hot, cold, wet, or windy it might be!

Date:

Astronomy

Sep. 25, 2013 Rise Set
Actual Time 6:31 AM EDT 6:32 PM EDT
Civil Twilight 6:04 AM EDT 7:00 PM EDT
Nautical Twilight 5:31 AM EDT 7:32 PM EDT
Astronomical Twilight 4:58 AM EDT 8:05 PM EDT
Moon 10:32 PM EDT (9/25) 12:39 PM EDT (9/25)
Length of Visible Light 12h 56m
Length of Day
12h 00m
Waning Gibbous, 64% of the Moon is Illuminated
Sep 25
Waning Gibbous
Sep 26
Last Quarter
Oct 4
New
Oct 11
First Quarter
Oct 18
Full

Hourly Weather History & Observations

Time (EDT) Temp. Windchill Dew Point Humidity Pressure Visibility Wind Dir Wind Speed Gust Speed Precip Events Conditions
12:56 AM 48.0 °F - 45.0 °F 89% 29.90 in 10.0 mi Calm Calm - N/A   Partly Cloudy
1:56 AM 46.0 °F - 44.1 °F 93% 29.89 in 10.0 mi Calm Calm - N/A   Clear
2:56 AM 45.0 °F - 43.0 °F 93% 29.88 in 10.0 mi Calm Calm - N/A   Clear
3:56 AM 44.1 °F - 42.1 °F 93% 29.88 in 10.0 mi Calm Calm - N/A   Clear
4:56 AM 45.0 °F - 43.0 °F 93% 29.88 in 10.0 mi Calm Calm - N/A   Clear
5:56 AM 46.0 °F 44.8 °F 44.1 °F 93% 29.87 in 10.0 mi NW 3.5 mph - N/A   Clear
6:56 AM 46.0 °F - 44.1 °F 93% 29.88 in 10.0 mi Calm Calm - N/A   Clear
7:56 AM 53.1 °F - 46.0 °F 77% 29.88 in 10.0 mi NW 4.6 mph - N/A   Clear
8:56 AM 57.9 °F - 48.9 °F 72% 29.89 in 10.0 mi NW 5.8 mph - N/A   Clear
9:56 AM 60.1 °F - 46.9 °F 62% 29.89 in 10.0 mi North 9.2 mph - N/A   Clear
10:56 AM 60.1 °F - 48.0 °F 64% 29.89 in 10.0 mi North 10.4 mph 17.3 mph N/A   Partly Cloudy
11:56 AM 62.1 °F - 48.9 °F 62% 29.90 in 10.0 mi Variable 6.9 mph - N/A   Scattered Clouds
12:56 PM 62.1 °F - 48.9 °F 62% 29.90 in 10.0 mi NNW 8.1 mph - N/A   Partly Cloudy
1:56 PM - - - N/A% 29.89 in 10.0 mi North 6.9 mph - N/A   Partly Cloudy
2:26 PM 64.4 °F - 48.2 °F 56% 29.89 in 10.0 mi NNE 11.5 mph - N/A   Mostly Cloudy
2:36 PM 62.6 °F - 46.4 °F 55% 29.89 in 10.0 mi NNE 10.4 mph - N/A   Scattered Clouds
2:56 PM 64.0 °F - 45.0 °F 50% 29.90 in 10.0 mi NNW 10.4 mph - N/A   Partly Cloudy
3:56 PM 63.0 °F - 48.0 °F 58% 29.90 in 10.0 mi NE 10.4 mph - N/A   Clear
4:56 PM 63.0 °F - 46.0 °F 54% 29.90 in 10.0 mi NNE 8.1 mph - N/A   Mostly Cloudy
5:56 PM 62.1 °F - 46.9 °F 58% 29.90 in 10.0 mi NE 4.6 mph - N/A   Overcast
6:56 PM 61.0 °F - 46.9 °F 60% 29.92 in 10.0 mi Calm Calm - N/A   Overcast
7:56 PM 60.1 °F - 48.0 °F 64% 29.93 in 10.0 mi Calm Calm - N/A   Overcast
8:56 PM 57.9 °F - 48.9 °F 72% 29.94 in 10.0 mi Calm Calm - N/A   Overcast
9:56 PM 57.0 °F - 50.0 °F 77% 29.95 in 10.0 mi Calm Calm - N/A   Overcast
10:56 PM 57.0 °F - 48.9 °F 74% 29.96 in 10.0 mi Calm Calm - N/A   Overcast
11:56 PM 57.0 °F - 48.9 °F 74% 29.96 in 10.0 mi Calm Calm - N/A   Overcast